默认 日期 大小 文件数 浏览量 最新下载 xml
popular磁力链接相关资源由用户搜索指令自动获取,结果来源于网络,本站不存储任何资料,亦不承担任何责任,请于24小时内删除,搜索到3018个磁力,用时4ms。
    {"serial for CNG.htm": 312, "serial for CRT.htm": 312, "serial for Chop.htm": 316, "serial for C Free.htm": 324, "serial for CD Tag.htm": 324, "serial for CPUSpy.htm": 324, "serial for CTube .htm": 324, "serial for CadLib.htm": 324, "serial for CopyM8.htm ...
创建时间: 2019-03-22 05:08:15 大小:123.88 KB 文件数量:344 热度:11 最近下载:2025-03-28 12:26:02
    {"Popular Woodworking - Arts & Crafts Furniture Projects - 2008.epub": 26544418, "Popular Woodworking - Arts & Crafts Furniture Projects - 2008.mobi": 26941851, "Popular Woodworking - Arts & Crafts Furniture Projects (2nd edition) - 2014.pdf": 31260959}
创建时间: 2019-03-23 16:17:05 大小:80.82 MB 文件数量:3 热度:7 最近下载:2025-01-04 00:52:07
    {"160) i Love iT.m4r": 437648, "28) Burak Yeter.m4r": 1209588, "44) Gesaffelstein.m4r": 654925, "35) Designer-Panda.m4r": 491688, "77) Pompeya - Slow.m4r": 1107506, "147) CYGO - Panda E.m4r": 1158340, "208) MNEK - Correct.m4r": 587430, "71) OBLADAET - I AM ...
创建时间: 2019-03-23 17:33:43 大小:127.63 MB 文件数量:223 热度:6 最近下载:2025-04-01 15:57:03
    {"folder.jpg": 339273, "030. Max - Holla.mp3": 6181739, "032. Joio - Feel.mp3": 7581097, "043. Tujamo - Boom.mp3": 6108212, "081. Arpi - You Are.mp3": 6591375, "018. Twiins - Sagapo.mp3": 6751806, "069. Anouk - New Day.mp3": 7090388, "004. Tomx - In The ...
创建时间: 2019-03-23 20:07:56 大小:733.07 MB 文件数量:101 热度:8 最近下载:2025-04-01 09:51:02
    {"Audio Files - MP3": {"Chekkele by Pathayam - Music Mojo - Kappa TV.mp3": 8079319, "Athiru Kaakkum by Pathayam - Music Mojo - Kappa TV.mp3": 6318887, "Iktara (Wake up Sid) cover by Pathayam - Music Mojo - Kappa TV.mp3": 6591613, "Titanium (David Guetta ...
创建时间: 2019-03-24 19:58:42 大小:126.09 MB 文件数量:12 热度:11 最近下载:2025-08-05 15:56:06
    {"Disc 1": {"cover.bmp": 30054, "folder.jpg": 94875, "03. Starlet - I'm Home.mp3": 7252731, "15. Permer - Charlotte.mp3": 5426694, "06. Leslies - Ignorance.mp3": 5752756, "21. Club 8 - You And Me.mp3": 3549700, "04. Club 8 - Missing You.mp3": 4560936, "09. ...
创建时间: 2019-03-25 01:18:24 大小:562.9 MB 文件数量:109 热度:14 最近下载:2024-12-02 05:17:02
    {"The Farmlopez - Cancionero populas.cue": 1152, "The Farmlopez - Cancionero populas.log": 4846, "The Farmlopez - Cancionero populas.flac": 226685925}
创建时间: 2019-03-25 14:04:39 大小:216.19 MB 文件数量:3 热度:6 最近下载:2025-03-22 05:36:01
    {"tracked_by_h33t_com.txt": 185, "Popular Photography USA - May 2013.tgz": 110526127, "Torrent downloaded from AhaShare.com.txt": 58, "Torrent Downloaded From ExtraTorrent.com.txt": 339}
创建时间: 2019-03-27 06:37:06 大小:105.41 MB 文件数量:4 热度:7 最近下载:2025-01-28 22:46:01
    ... Murk.mp3": 12104395, "Meltin' Pot Popular, Fashion Music.m3u": 582, "10 ...
创建时间: 2019-03-27 21:44:15 大小:167.36 MB 文件数量:16 热度:6 最近下载:2025-03-18 14:30:02
    {"Ted Lewis - Medley.mp3": 1357209, "Ted Lewis - Ho Hum!.mp3": 2964434, "Ted Lewis - Ma! 1922.mp3": 3106769, "Ted Lewis - San 1924.mp3": 2684213, "Paul Whiteman - Sugar.mp3": 1253756, "Paul Whiteman - Me Too.mp3": 1269885, "Rudy Wiedoeft - Gloria.mp3": ...
创建时间: 2019-03-28 04:39:00 大小:1.35 GB 文件数量:639 热度:9 最近下载:2024-05-31 19:49:02
    {"037. 666 - Alarma!.mp3": 8308447, "020. Daze - Toy Boy.mp3": 7863355, "041. Xeya - Kiss Me.mp3": 12954066, "080. Daze - Call Girl.mp3": 8035735, "086. Kosmonova - Ayla.mp3": 8652257, "040. OutKast - Hey Ya!.mp3": 9676259, "010. Tiggy - Daddy Boom.mp3": ...
创建时间: 2019-03-29 04:26:54 大小:932.33 MB 文件数量:100 热度:7 最近下载:2025-03-23 14:40:02
    {"p.jpg": 179557, "FC2PPV-1049590.jpg": 1406525, "FC2PPV-1049590.mp4": 2308725716}
创建时间: 2019-03-29 15:59:33 大小:2.15 GB 文件数量:3 热度:42 最近下载:2025-09-17 07:06:06
    {"Popular_Science.tgz": 22736436, "Torrent downloaded from demonoid.pw.txt": 46, "Torrent Downloaded From ExtraTorrent.com.txt": 367}
创建时间: 2019-03-29 21:48:02 大小:21.68 MB 文件数量:3 热度:8 最近下载:2025-03-22 01:47:02
    {"B Pure Rose.flac": 60296544, "A Live At Leningrad.flac": 48986285}
创建时间: 2019-03-29 23:15:15 大小:104.22 MB 文件数量:2 热度:5 最近下载:2021-06-17 16:25:58
    {"cover": {"Back.png": 3250424, "Front.png": 1234423, "R-1989446-1341061342-4592.jpeg": 228655, "R-1989446-1341061355-9338.jpeg": 167584, "R-1989446-1341061366-6989.jpeg": 264154, "R-1989446-1341061385-8582.jpeg": 256015}, "Info & playlist": {"NFO.nfo": ...
创建时间: 2019-03-30 06:16:59 大小:205.85 MB 文件数量:33 热度:5 最近下载:2021-06-17 16:25:58
    {"MILD-794.avi": 1532790515, "MILD-794.jpg": 220392}
创建时间: 2019-03-30 08:34:47 大小:1.43 GB 文件数量:2 热度:50 最近下载:2025-08-06 16:55:07
    {"cover.jpg": 61260, "metadata.opf": 4089, "Reinventing Jesus_ How Contempo - J. Ed Komoszewski.epub": 2893821, "Reinventing Jesus_ How Contempo - J. Ed Komoszewski.mobi": 3266229}
创建时间: 2019-03-30 21:03:36 大小:5.94 MB 文件数量:4 热度:10 最近下载:2025-08-02 22:39:03
    {"ECLiPSE.txt": 19963, "Read Me.txt": 1187, "Popular Science Australia - December 2016.pdf": 18650601}
创建时间: 2019-03-31 00:22:19 大小:17.81 MB 文件数量:3 热度:6 最近下载:2025-03-17 13:53:02
    {"Hand Tool Essentials - Refine Your Power Tool Projects with Hand Tool Techniques (Popular Woodworking).epub": 46447891}
创建时间: 2019-03-31 13:43:46 大小:44.3 MB 文件数量:1 热度:5 最近下载:2022-04-13 06:11:50
    ... -November 1985.pdf": 13745858}, "1986": {"Popular Woodworking No 32 August-September ... August-September 1987.pdf": 10063925, "Popular Woodworking No 39 October-November ... December-January 1989.pdf": 18407254, "Popular Woodworking No 50 August-September ...
创建时间: 2019-03-31 17:45:17 大小:3.96 GB 文件数量:228 热度:6 最近下载:2024-12-28 03:18:02